Regional Weather Roundup
Issued by NWS

Home | Current Version | Previous Version | Graphics & Text | Print | Product List | Glossary On
Versions: 1 2 3 4 5 6 7 8 9 10 11 12 13 14 15 16 17 18 19 20 21 22 23 24 25 26 27 28 29 30 31 32 33 34 35 36 37 38 39 40 41 42 43 44 45 46 47 48 49 50
000
ASUS43 KBIS 250210
RWRND

NORTH DAKOTA REGIONAL WEATHER ROUNDUP
NATIONAL WEATHER SERVICE BISMARCK ND
900 PM CDT THU APR 24 2014

NOTE: "FAIR" INDICATES FEW OR NO CLOUDS BELOW 12,000 FEET WITH NO
SIGNIFICANT WEATHER AND/OR OBSTRUCTIONS TO VISIBILITY.


NDZ001>003-009>011-017-250300-
NORTHWEST NORTH DAKOTA

CITY           SKY/WX    TMP DP  RH WIND       PRES   REMARKS
WILLISTON      CLEAR     46  28  49 CALM      29.70S
MINOT          MOCLDY    50  36  58 NE3       29.70R
MINOT AFB      MOCLDY    52  36  56 S1        29.69R
$$

NDZ018>021-031>035-040>046-250300-
SOUTHWEST NORTH DAKOTA

CITY           SKY/WX    TMP DP  RH WIND       PRES   REMARKS
BISMARCK       CLEAR     52  31  44 NE9       29.73R
DICKINSON      PTCLDY    50  23  34 N6        29.72R
GARRISON         N/A     47  29  49 NW7       29.71R
HETTINGER ARPT MOCLDY    46  20  35 N3        29.75R
$$

NDZ004>008-012>016-024-026-027-054-250300-
NORTHEAST NORTH DAKOTA

CITY           SKY/WX    TMP DP  RH WIND       PRES   REMARKS
GRAND FORKS    CLOUDY    41  39  93 NE5       29.73R FOG
GRND FRKS AFB  CLOUDY    42  42 100 SE5       29.73R FOG
DEVILS LAKE    PTCLDY    45  37  76 E6        29.71R
$$

NDZ022-023-025-028>030-036>039-047>053-250300-
SOUTHEAST NORTH DAKOTA

CITY           SKY/WX    TMP DP  RH WIND       PRES   REMARKS
FARGO          MOCLDY    43  41  93 N3        29.68R
JAMESTOWN      PTCLDY    46  38  73 N14       29.70R
$$




USA.gov is the U.S. government's official web portal to all federal, state and local government web resources and services.